Terug naar catalogus

SL-12 DEB

LostHEO
NORAD 29417·DEBRIS·🇷🇺 Russia

Gelanceerd May 31, 1989 vanaf Baikonur Cosmodrome

Loading…

Volgende Passages (komende 24 uur)

TLE

VerouderdSource: Space-Track

Epoch: Aug 5, 2006, 08:03 UTC

1 29417U 89039BV  06217.33572022  .00000047  00000-0  10000-3 0  9997
2 29417  65.0036 272.4076 5120390  70.2911 336.8424  4.32149628  1687

Volg SL-12 DEB in realtime met AllMySat

Download on the App Store